This is the latest recevied weather packets stored in our database for station/object HP3ICC-22. If no packets are shown the sender has not sent any weather packets the latest 10 day(s).
| Time | Temp. | Humidity | Pressure | Rain* | Wind** | Luminosity | Snow |
|---|---|---|---|---|---|---|---|
| 1777639275 | 10° C | 87% | 1012 hPa | 0 mm | - | - | - |
| 1777639214 | 10° C | 87% | 1012 hPa | 0 mm | - | - | - |
| 1777638074 | 10.56° C | 88% | 1010 hPa | 0 mm | - | - | - |
| 1777638014 | 10.56° C | 88% | 1010 hPa | 0 mm | - | - | - |
| 1777636874 | 11.67° C | 88% | 1012 hPa | 0 mm | - | - | - |
| 1777636813 | 11.67° C | 88% | 1012 hPa | 0 mm | - | - | - |
| 1777635673 | 8.89° C | 86% | 1012 hPa | 0 mm | - | - | - |
| 1777635613 | 8.89° C | 86% | 1012 hPa | 0 mm | - | - | - |
| 1777634473 | 9.44° C | 75% | 1010 hPa | 0 mm | - | - | - |
| 1777634413 | 9.44° C | 75% | 1010 hPa | 0 mm | - | - | - |
| 1777633272 | 8.89° C | 84% | 1012 hPa | 0 mm | - | - | - |
| 1777633212 | 8.89° C | 84% | 1012 hPa | 0 mm | - | - | - |
| 1777632072 | 9.44° C | 75% | 1012 hPa | 0 mm | - | - | - |
| 1777632011 | 9.44° C | 75% | 1012 hPa | 0 mm | - | - | - |
| 1777630871 | 8.89° C | 84% | 1010 hPa | 0 mm | - | - | - |
| 1777630811 | 8.89° C | 84% | 1010 hPa | 0 mm | - | - | - |
| 1777629671 | 9.44° C | 75% | 1011 hPa | 0 mm | - | - | - |
| 1777629611 | 9.44° C | 75% | 1011 hPa | 0 mm | - | - | - |
| 1777628469 | 8.89° C | 84% | 1011 hPa | 0 mm | - | - | - |
| 1777628409 | 8.89° C | 84% | 1011 hPa | 0 mm | - | - | - |
| 1777627269 | 9.44° C | 75% | 1010 hPa | 0 mm | - | - | - |
| 1777627209 | 9.44° C | 75% | 1010 hPa | 0 mm | - | - | - |
| 1777626068 | 8.89° C | 81% | 1011 hPa | 0 mm | - | - | - |
| 1777626008 | 8.89° C | 81% | 1011 hPa | 0 mm | - | - | - |
| 1777624867 | 8.89° C | 77% | 1011 hPa | 0 mm | - | - | - |
* Rain latest hour (hover to see other rain measurements)
** Current wind speed in m/s (hover to see current wind gust speed)